TimeEDT,TemperatureF,Dew PointF,Humidity,Sea Level PressureIn,VisibilityMPH,Wind Direction,Wind SpeedMPH,Gust SpeedMPH,PrecipitationIn,Events,Conditions,WindDirDegrees,DateUTC
12:53 AM,59.0,45.0,60,30.22,10.0,North,16.1,25.3,N/A,,Scattered Clouds,350,2013-03-27 04:53:00
1:53 AM,59.0,45.0,60,30.21,9.0,North,18.4,24.2,N/A,,Mostly Cloudy,360,2013-03-27 05:53:00
2:53 AM,57.9,44.1,60,30.19,10.0,North,18.4,-,N/A,,Partly Cloudy,350,2013-03-27 06:53:00
3:53 AM,57.9,44.1,60,30.18,10.0,North,16.1,-,N/A,,Partly Cloudy,360,2013-03-27 07:53:00
4:53 AM,57.9,43.0,58,30.19,10.0,North,16.1,-,N/A,,Partly Cloudy,360,2013-03-27 08:53:00
5:53 AM,57.9,46.0,65,30.19,10.0,NNE,12.7,-,N/A,,Mostly Cloudy,20,2013-03-27 09:53:00
6:53 AM,57.0,46.0,67,30.21,10.0,North,13.8,21.9,N/A,,Scattered Clouds,10,2013-03-27 10:53:00
7:53 AM,55.9,41.0,57,30.24,10.0,North,15.0,-,N/A,,Scattered Clouds,10,2013-03-27 11:53:00
8:53 AM,57.9,39.0,49,30.26,10.0,North,16.1,-,N/A,,Partly Cloudy,360,2013-03-27 12:53:00
9:53 AM,59.0,37.9,46,30.29,10.0,North,13.8,-,N/A,,Partly Cloudy,360,2013-03-27 13:53:00
10:53 AM,61.0,37.9,42,30.30,10.0,North,15.0,-,N/A,,Partly Cloudy,360,2013-03-27 14:53:00
11:53 AM,62.1,37.9,41,30.29,10.0,North,18.4,-,N/A,,Clear,360,2013-03-27 15:53:00
12:00 PM,62.6,37.4,39,30.29,10.0,North,13.8,21.9,N/A,,Partly Cloudy,360,2013-03-27 16:00:00
12:53 PM,62.1,37.0,39,30.27,10.0,North,15.0,23.0,N/A,,Clear,10,2013-03-27 16:53:00
1:53 PM,64.0,37.0,37,30.26,10.0,North,15.0,-,N/A,,Clear,360,2013-03-27 17:53:00
2:53 PM,63.0,39.0,41,30.24,10.0,North,17.3,24.2,N/A,,Clear,350,2013-03-27 18:53:00
3:53 PM,64.0,43.0,46,30.22,10.0,NNW,17.3,-,N/A,,Clear,340,2013-03-27 19:53:00
4:53 PM,63.0,42.1,46,30.20,10.0,North,16.1,-,N/A,,Clear,350,2013-03-27 20:53:00
5:53 PM,63.0,43.0,48,30.21,10.0,NNW,12.7,-,N/A,,Clear,340,2013-03-27 21:53:00
6:53 PM,61.0,44.1,54,30.21,10.0,NNW,16.1,20.7,N/A,,Clear,340,2013-03-27 22:53:00
7:53 PM,60.1,44.1,55,30.22,10.0,NNW,13.8,-,N/A,,Clear,340,2013-03-27 23:53:00
8:53 PM,60.1,45.0,57,30.22,9.0,North,11.5,-,N/A,,Clear,360,2013-03-28 00:53:00
9:53 PM,60.1,46.0,60,30.23,10.0,North,10.4,-,N/A,,Clear,360,2013-03-28 01:53:00
10:53 PM,60.1,48.0,64,30.23,10.0,North,10.4,-,N/A,,Clear,10,2013-03-28 02:53:00
11:53 PM,61.0,48.0,62,30.24,10.0,North,10.4,-,N/A,,Clear,10,2013-03-28 03:53:00